Regional Weather Roundup
Issued by NWS

Home | Current Version | Previous Version | Text Only | Print | Product List | Glossary On
Versions: 1 2 3 4 5 6 7 8 9 10 11 12 13 14 15 16 17 18 19 20 21 22 23 24 25 26 27 28 29 30 31 32 33 34 35 36 37 38 39 40 41 42 43 44 45 46 47 48 49 50
000
ASUS42 KFFC 310703
RWRGA
WEATHER ROUNDUP FOR GEORGIA
NATIONAL WEATHER SERVICE PEACHTREE CITY GA
200 AM EST SAT JAN 31 2015

NOTE: "FAIR" INDICATES FEW OR NO CLOUDS BELOW 12,000 FEET WITH NO
SIGNIFICANT WEATHER AND/OR OBSTRUCTIONS TO VISIBILITY.

* = USE WITH CAUTION. THE STATIONS MARKED WITH AN ASTERISK MAY NOT
REPORT WEATHER SUCH AS PRECIPITATION, FOG, OR THUNDER AND ARE NOT
QUALITY CONTROLLED BY NWS.

THE REMARK "TC" DENOTES TEMPERATURE READING IN DEGREES CELSIUS.

GAZ001>058-310800-
NORTH GEORGIA

CITY           SKY/WX    TMP DP  RH WIND       PRES   REMARKS
ATLANTA        PTCLDY    34  20  56 NW8       30.32S WCI  27
ATHENS         CLEAR     28  20  71 NW3       30.31S
CHAMBLEE       CLEAR     33  19  56 NW7       30.32S WCI  27
PEACHTREE CITY CLEAR     33  20  58 N7        30.33F WCI  27
ROME           CLEAR     28  21  75 CALM      30.36F
WEST ATLANTA   CLEAR     33  19  56 CALM      30.33F
GAINESVILLE    CLEAR     33  18  53 NW7       30.30F WCI  27
CARTERSVILLE   CLEAR     30  19  63 CALM      30.37S


CITY           SKY/WX    TMP DP  RH WIND       PRES   REMARKS
DALTON*        PTCLDY    32  23  69 N3        30.37S
MARIETTA       CLEAR     30  20  67 NW3       30.33S
$$

GAZ059>098-102>109-310800-
CENTRAL GEORGIA

CITY           SKY/WX    TMP DP  RH WIND       PRES   REMARKS
AUGUSTA-BUSH   CLEAR     28  20  71 CALM      30.34R
AUGUSTA-DANIEL CLEAR     38  17  42 N6        30.32S WCI  33
COLUMBUS       PTCLDY    39  19  44 NE5       30.33S
MACON          CLEAR     31  24  75 W3        30.34R
ROBINS AFB     CLEAR     35  22  59 W3        30.31R


CITY           SKY/WX    TMP DP  RH WIND       PRES   REMARKS
LAGRANGE*      PTCLDY    39  25  58 N5        30.33F
SYLVANIA*      CLEAR     37  27  69 NE3       30.32S
MILLEDGEVILLE* CLEAR     32  28  86 CALM      30.34R
$$

GAZ099>101-110>166-310800-
SOUTH GEORGIA

CITY           SKY/WX    TMP DP  RH WIND       PRES   REMARKS
SAVANNAH       CLEAR     36  27  69 N7        30.32R WCI  30
VALDOSTA       PTCLDY    43  26  51 N9        30.30S
ALMA           MOCLDY    40  26  57 N6        30.31S
ST SIMONS      PTCLDY    43  29  57 N8        30.29R
FT STEWART     CLEAR     36  28  73 N3        30.30R
ALBANY         MOCLDY    42  23  46 N6        30.34S
HUNTER AFB     CLEAR     41  27  57 N3        30.29R
MOODY AFB      PTCLDY    42  26  51 N10       30.29S
BRUNSWICK      PTCLDY    45  28  53 N6        30.30R


CITY           SKY/WX    TMP DP  RH WIND       PRES   REMARKS
BAINBRIDGE*    PTCLDY    45  30  57 NE5       30.32S
MOULTRIE*      MOCLDY    43  28  56 N5        30.31R
VIDALIA*       CLEAR     37  30  75 N5        30.32S WCI  34
WAYCROSS*      MOCLDY    42  33  70 N6        30.31R
DOUGLAS*       MOCLDY    43  27  52 N8        30.32F
$$


USA.gov is the U.S. government's official web portal to all federal, state and local government web resources and services.